Hourly Data Report for June 22, 2019

TORONTO CITY
ONTARIO
Current Station Operator: ECCC - MSC

43°40'00.000" N
79°24'00.000" W
112.50 m
6158355
71508
XTO

Download Data

Hourly Data (June 2019)
Hourly Data Report for June 22, 2019
TIME
LST
Temp Definition
°C
Dew Point Definition
°C
Rel Hum Definition
%
Precip. Amount Definition
mm

Wind Dir Definition
10's deg

Wind Spd Definition
km/h
Visibility Definition
km
Stn Press Definition
kPa
Hmdx Definition


Wind Chill Definition


Weather Definition


00:00 16.9 6.6 51 0.0       100.18     LegendNANA
01:00 16.3 6.4 52 0.0       100.19     LegendNANA
02:00 15.8 6.7 55 0.0       100.22     LegendNANA
03:00 14.9 7.2 60 0.0       100.24     LegendNANA
04:00 14.5 7.4 62 0.0       100.29     LegendNANA
05:00 14.2 7.6 64 0.0       100.37     LegendNANA
06:00 15.1 8.0 62 0.0       100.42     LegendNANA
07:00 17.2 8.2 55 0.0       100.47     LegendNANA
08:00 18.9 7.6 48 0.0       100.47     LegendNANA
09:00 20.5 7.5 43 0.0       100.50     LegendNANA
10:00 22.5 6.6 36 0.0       100.51     LegendNANA
11:00 23.3 4.7 30 0.0       100.56     LegendNANA
12:00 23.8 6.0 32 0.0       100.56     LegendNANA
13:00 23.7 6.0 32 0.0       100.52     LegendNANA
14:00 24.8 9.1 37 0.0       100.50 26   LegendNANA
15:00 25.2 7.2 32 0.0       100.45 25   LegendNANA
16:00 25.3 5.0 27 0.0       100.44 25   LegendNANA
17:00 22.3 7.2 38 0.0       100.45     LegendNANA
18:00 22.2 7.3 38 0.0       100.46     LegendNANA
19:00 23.7 9.0 39 0.0       100.46 25   LegendNANA
20:00 22.3 8.7 42 0.0       100.47     LegendNANA
21:00 20.8 8.2 44 0.0       100.47     LegendNANA
22:00 19.1 7.6 47 0.0       100.47     LegendNANA
23:00 18.5 7.3 48 0.0       100.44     LegendNANA

Notes on Data Quality.

Legend

  • E = Estimated
  • M = Missing
  • NA = Not Available*
  • [empty] = Indicates an unobserved value
Date modified: